CYGFM05

Last updated on Sat Apr 13 2024 01:02:16 GMT+0100 (British Summer Time)

1 41884U 16078A 24103.07978449 .00008182 00000+0 31710-3 0 9998 2 41884 34.9544 359.1266 0013845 312.4091 47.5452 15.25316417405976
UTC large
Height (km)
Speed (km/s)
/
Latitude / Longitude
Inclination (degrees)
Orbital Period (minutes)
Azimuth
Elevation
Range (km)
Doppler Factor

Next 0 passes for location: London (51.5072 / 0.1276)

Sorry there are no passes over London.